Location: Ellerstadt
(49.4644°N, 8.2615°E)
Time: 03:45:34
(UTC+00:00)

SJ-6B - Pass Details

Date: 03 March 2021
Orbit: 509 x 581 km, 97.6° (Epoch: 16 April)

Event Time Altitude Azimuth Distance (km) Brightness Sun altitude
Exits shadow 19:23:02 28° 182° (S) 1,094 4.2 -21.7°
Maximum altitude 19:25:05 67° 258° (WSW) 626 3.2 -22.0°
Drops below altitude 10° 19:29:09 10° 342° (NNW) 1,875 6.0 -22.7°
Sets 19:31:18 0° 345° (NNW) 2,766 6.8 -23.0°
